Regional Weather Roundup
Issued by NWS

Home | Current Version | Previous Version | Graphics & Text | Print | Product List | Glossary On
Versions: 1 2 3 4 5 6 7 8 9 10 11 12 13 14 15 16 17 18 19 20 21 22 23 24 25 26 27 28 29 30 31 32 33 34 35 36 37 38 39 40 41 42 43 44 45 46 47 48 49 50
000
ASUS43 KOAX 252210
RWRNE

WEATHER ROUNDUP FOR NEBRASKA
NATIONAL WEATHER SERVICE OMAHA NE
400 PM CST SUN JAN 25 2015

NOTES: SATELLITE DATA IS BEING USED TO AUGMENT CLOUD COVER ABOVE
       12000 FEET.
       "FAIR" INDICATES FEW OR NO CLOUDS BELOW 12,000 FEET WITH NO
       SIGNIFICANT WEATHER AND/OR OBSTRUCTIONS TO VISIBILITY.

  * THESE STATIONS DO NOT REPORT WEATHER SUCH AS RAIN...SNOW OR FOG.

NEZ001>004-019>022-054>056-252300-
NEBRASKA PANHANDLE

CITY           SKY/WX    TMP DP  RH WIND       PRES   REMARKS
SCOTTSBLUFF    MOSUNNY   54  34  46 NW5       30.05F
ALLIANCE       CLOUDY    45  36  70 W12       30.03R
CHADRON        CLOUDY    52  36  54 CALM      30.00F
KIMBALL        SUNNY     54  30  39 NW17G24   30.06F
SIDNEY         MOSUNNY   54  31  41 NW14      30.07S
$$

NEZ057>060-069>072-079>082-252300-
SOUTHWEST NEBRASKA

CITY           SKY/WX    TMP DP  RH WIND       PRES   REMARKS
NORTH PLATTE   SUNNY     52  17  25 NW15      30.05R
IMPERIAL       SUNNY     54  28  36 NW17      30.06R
LEXINGTON      SUNNY     48  29  48 N8        30.06S
MCCOOK         SUNNY     55  19  24 N16       30.05S
OGALLALA       MOSUNNY   54  32  43 NW14G28   30.05R
$$

NEZ005>010-023>029-035>040-094-252300-
NORTH CENTRAL NEBRASKA

CITY           SKY/WX    TMP DP  RH WIND       PRES   REMARKS
VALENTINE      SUNNY     45  26  47 NW14      30.02F
AINSWORTH      MOSUNNY   40  29  64 NW3       30.03F
BROKEN BOW     SUNNY     45  29  53 NW12      30.06R
O`NEILL        CLOUDY    40  34  78 NW9       30.05S WCI  34
ORD            CLOUDY    41  28  60 NW13      30.06R
THEDFORD       SUNNY     50  24  36 NW13      30.04R
$$

NEZ041-046>049-061>064-073>077-083>087-252300-
SOUTH CENTRAL NEBRASKA

CITY           SKY/WX    TMP DP  RH WIND       PRES   REMARKS
GRAND ISLAND   CLOUDY    41  29  62 NW15      30.09R
AURORA         CLOUDY    41  33  74 N12       30.07R
HASTINGS       CLOUDY    43  27  53 N18       30.08R
HEBRON         PTSUNNY   43  28  56 N17       30.07R
HOLDREGE       SUNNY     46  26  47 N12G18    30.07S
KEARNEY *      MOSUNNY   45  28  53 N15       30.08R
YORK           CLOUDY    41  32  70 N12G17    30.07R
$$

NEZ011>018-030>034-042>045-252300-
NORTHEAST NEBRASKA

CITY           SKY/WX    TMP DP  RH WIND       PRES   REMARKS
NORFOLK        CLOUDY    39  32  76 NW10      30.05R WCI  32
ALBION         CLOUDY    40  33  75 NW10      30.06R WCI  34
BLAIR          CLOUDY    39  31  72 N12       30.03R WCI  32
COLUMBUS *     CLOUDY    39  28  65 NW12      30.08R WCI  32
FREMONT        CLOUDY    39  33  78 NW9       30.06R WCI  33
TEKAMAH        CLOUDY    41  32  70 N12       30.06R
WAYNE          CLOUDY    37  33  87 NW9       30.06R WCI  30
$$

NEZ050>053-065>068-078-088>093-252300-
SOUTHEAST NEBRASKA

CITY           SKY/WX    TMP DP  RH WIND       PRES   REMARKS
LINCOLN        CLOUDY    40  31  70 N14       30.08R WCI  32
OMAHA EPPLEY   PTSUNNY   40  31  70 N16       30.04R WCI  31
BEATRICE       CLOUDY    39  31  72 N13       30.07R WCI  32
FALLS CITY     CLOUDY    40  31  70 N13G20    30.02R WCI  32
NEBRASKA CITY  CLOUDY    40  29  63 N14G20    30.03R WCI  32
PLATTSMOUTH    MOSUNNY   39  28  64 N13       30.04R WCI  31
$$

NEZ044-045-051>053-067-252300-
OMAHA AREA

CITY           SKY/WX    TMP DP  RH WIND       PRES   REMARKS
OMAHA EPPLEY   PTSUNNY   40  31  70 N16       30.04R WCI  31
BLAIR          CLOUDY    39  31  72 N12       30.03R WCI  32
FREMONT        CLOUDY    39  33  78 NW9       30.06R WCI  33
MILLARD        CLOUDY    41  28  58 N12       30.05R
OFFUTT AFB     CLOUDY    41  28  59 N10       30.04R
PLATTSMOUTH    MOSUNNY   39  28  64 N13       30.04R WCI  31
WAHOO          CLOUDY    39  31  73 NW10      30.06R WCI  32
$$



USA.gov is the U.S. government's official web portal to all federal, state and local government web resources and services.